Change the Weather History Date:

Thursday, November 8, 2012

  Actual Average (KPBG) Record (KPBG)
Temperature  
Mean Temperature 32 °F 40 °F  
Max Temperature 36 °F 49 °F 67 °F (1975)
Min Temperature 27 °F 30 °F 19 °F (1960)
Degree Days  
Heating Degree Days 34 25  
Month to date heating degree days 193  
Since 1 July heating degree days 976  
Cooling Degree Days 0 0  
Month to date cooling degree days 0  
Year to date cooling degree days 346  
Moisture  
Dew Point 24 °F    
Average Humidity 70    
Maximum Humidity 78    
Minimum Humidity 65    
Precipitation  
Precipitation 0.00 in - 0.86 in (1968)
Month to date precipitation  
Year to date precipitation  
Sea Level Pressure  
Sea Level Pressure 30.00 in    
Wind  
Wind Speed 9 mph (North)    
Max Wind Speed 16 mph    
Max Gust Speed 23 mph    
Visibility 10 miles    
Events      
T = Trace of Precipitation, MM = Missing Value Source: NWS Daily Summary

Daily Weather History Graph

Daily Weather History Graph

Search for Another Location

Airport or City:

Trip Planner

Search our weather history database for the weather conditions in past years. The results will help you decide how hot, cold, wet, or windy it might be!

Date:

Astronomy

Nov. 08, 2012 Rise Set
Actual Time 6:40 AM EST 4:30 PM EST
Civil Twilight 6:09 AM EST 5:01 PM EST
Nautical Twilight 5:34 AM EST 5:37 PM EST
Astronomical Twilight 5:00 AM EST 6:11 PM EST
Moon 12:18 AM EST (11/8) 1:23 PM EST (11/8)
Length of Visible Light 10h 52m
Length of Day
9h 49m
Waning Crescent, 33% of the Moon is Illuminated
Nov 8
Waning Crescent
Nov 13
New
Nov 20
First Quarter
Nov 28
Full
Dec 6
Last Quarter

Hourly Weather History & Observations

Time (EST) Temp. Windchill Dew Point Humidity Pressure Visibility Wind Dir Wind Speed Gust Speed Precip Events Conditions
12:15 AM 28.9 °F 21.1 °F 18.9 °F 66% 30.04 in 10.0 mi North 8.1 mph - N/A   Scattered Clouds
12:35 AM 28.4 °F 18.0 °F 18.5 °F 66% 30.03 in 10.0 mi North 12.7 mph - N/A   Clear
12:55 AM 28.4 °F 19.7 °F 18.5 °F 66% 30.03 in 10.0 mi NNE 9.2 mph - N/A   Clear
1:15 AM 28.4 °F 18.5 °F 19.0 °F 68% 30.03 in 10.0 mi North 11.5 mph - N/A   Clear
1:35 AM 28.2 °F 21.0 °F 19.0 °F 68% 30.03 in 10.0 mi North 6.9 mph - N/A   Clear
1:55 AM 27.7 °F 21.3 °F 19.0 °F 70% 30.03 in 10.0 mi North 5.8 mph - N/A   Clear
2:35 AM 27.5 °F 18.0 °F 19.2 °F 71% 30.02 in 10.0 mi North 10.4 mph - N/A   Clear
2:55 AM 27.5 °F 18.0 °F 19.0 °F 71% 30.02 in 10.0 mi North 10.4 mph - N/A   Clear
3:15 AM 27.3 °F 17.7 °F 19.2 °F 72% 30.02 in 10.0 mi North 10.4 mph - N/A   Clear
3:35 AM 27.3 °F 19.1 °F 18.9 °F 70% 30.01 in 10.0 mi North 8.1 mph 16.1 mph N/A   Clear
3:55 AM 27.3 °F 18.4 °F 19.0 °F 71% 30.01 in 10.0 mi North 9.2 mph - N/A   Clear
4:15 AM 27.1 °F 18.9 °F 18.9 °F 71% 30.01 in 10.0 mi North 8.1 mph - N/A   Clear
4:35 AM 27.1 °F 18.2 °F 19.0 °F 72% 30.01 in 10.0 mi North 9.2 mph - N/A   Clear
4:55 AM 27.1 °F 19.7 °F 19.4 °F 73% 30.01 in 10.0 mi North 6.9 mph - N/A   Clear
5:15 AM 27.1 °F 18.2 °F 19.4 °F 73% 30.01 in 10.0 mi North 9.2 mph 16.1 mph N/A   Clear
5:35 AM 27.1 °F 18.2 °F 19.8 °F 74% 30.01 in 10.0 mi North 9.2 mph - N/A   Clear
5:55 AM 27.1 °F 17.5 °F 20.1 °F 75% 30.01 in 10.0 mi North 10.4 mph 16.1 mph N/A   Clear
6:15 AM 27.1 °F 18.2 °F 20.3 °F 75% 30.01 in 10.0 mi North 9.2 mph - N/A   Clear
6:35 AM 27.1 °F 19.7 °F 20.8 °F 77% 30.02 in 10.0 mi North 6.9 mph - N/A   Clear
6:55 AM 27.1 °F 18.2 °F 21.0 °F 78% 30.02 in 10.0 mi North 9.2 mph 16.1 mph N/A   Clear
7:15 AM 27.1 °F 18.2 °F 21.0 °F 78% 30.02 in 10.0 mi North 9.2 mph 17.3 mph N/A   Clear
7:35 AM 27.1 °F 18.9 °F 21.2 °F 78% 30.02 in 10.0 mi North 8.1 mph - N/A   Clear
7:55 AM 27.1 °F 19.7 °F 21.2 °F 78% 30.03 in 10.0 mi NNE 6.9 mph - N/A   Clear
8:15 AM 27.3 °F 17.7 °F 21.0 °F 77% 30.03 in 10.0 mi North 10.4 mph - N/A   Clear
8:35 AM 28.9 °F 19.8 °F 21.9 °F 75% 30.03 in 10.0 mi NNE 10.4 mph - N/A   Clear
8:55 AM 29.7 °F 20.7 °F 22.5 °F 75% 30.03 in 10.0 mi North 10.4 mph - N/A   Clear
9:15 AM 29.7 °F 21.3 °F 22.1 °F 73% 30.03 in 10.0 mi NNE 9.2 mph - N/A   Clear
9:35 AM 32.0 °F 25.6 °F 23.9 °F 72% 30.02 in 10.0 mi North 6.9 mph - N/A   Clear
9:55 AM 32.0 °F 24.2 °F 23.4 °F 70% 30.02 in 10.0 mi North 9.2 mph - N/A   Clear
10:15 AM 32.0 °F 24.8 °F 23.9 °F 72% 30.01 in 10.0 mi North 8.1 mph - N/A   Scattered Clouds
10:35 AM 32.2 °F 24.4 °F 23.4 °F 70% 30.01 in 10.0 mi North 9.2 mph 17.3 mph N/A   Mostly Cloudy
10:55 AM 34.3 °F 27.0 °F 25.2 °F 69% 30.01 in 10.0 mi North 9.2 mph - N/A   Overcast
11:15 AM 34.3 °F 27.0 °F 23.9 °F 66% 30.00 in 10.0 mi North 9.2 mph - N/A   Mostly Cloudy
11:35 AM 34.3 °F 26.5 °F 25.5 °F 70% 29.99 in 10.0 mi North 10.4 mph - N/A   Mostly Cloudy
11:55 AM 34.5 °F 27.3 °F 25.9 °F 71% 29.98 in 10.0 mi North 9.2 mph - N/A   Mostly Cloudy
12:15 PM 34.3 °F 27.7 °F 25.7 °F 71% 29.98 in 10.0 mi North 8.1 mph 18.4 mph N/A   Overcast
12:35 PM 34.3 °F 27.0 °F 25.7 °F 71% 29.98 in 10.0 mi NNW 9.2 mph 17.3 mph N/A   Overcast
12:55 PM 35.4 °F 27.8 °F 26.8 °F 71% 29.97 in 10.0 mi North 10.4 mph - N/A   Overcast
1:15 PM 36.9 °F 27.5 °F 27.1 °F 68% 29.97 in 10.0 mi North 16.1 mph - N/A   Overcast
1:35 PM 35.6 °F 28.0 °F 26.6 °F 70% 29.96 in 10.0 mi North 10.4 mph - N/A   Overcast
1:55 PM 36.9 °F 29.6 °F 27.5 °F 69% 29.96 in 10.0 mi North 10.4 mph 18.4 mph N/A   Overcast
2:15 PM 36.9 °F 30.1 °F 27.3 °F 68% 29.96 in 10.0 mi North 9.2 mph 19.6 mph N/A   Overcast
2:35 PM 36.7 °F 29.4 °F 27.1 °F 68% 29.96 in 10.0 mi NNW 10.4 mph 17.3 mph N/A   Overcast
2:55 PM 36.9 °F 29.1 °F 27.1 °F 68% 29.95 in 10.0 mi North 11.5 mph 17.3 mph N/A   Overcast
3:15 PM 36.9 °F 28.7 °F 27.0 °F 67% 29.96 in 10.0 mi North 12.7 mph 21.9 mph N/A   Overcast
3:35 PM 36.9 °F 29.1 °F 27.1 °F 68% 29.96 in 10.0 mi North 11.5 mph 23.0 mph N/A   Overcast
3:55 PM 36.9 °F 30.7 °F 27.1 °F 68% 29.96 in 10.0 mi North 8.1 mph 17.3 mph N/A   Overcast
4:15 PM 36.9 °F 29.1 °F 27.1 °F 68% 29.96 in 10.0 mi North 11.5 mph 16.1 mph N/A   Overcast
4:35 PM 36.9 °F 30.7 °F 27.3 °F 68% 29.96 in 10.0 mi North 8.1 mph - N/A   Overcast
4:55 PM 36.9 °F 30.7 °F 27.5 °F 69% 29.96 in 10.0 mi North 8.1 mph 16.1 mph N/A   Overcast
5:15 PM 36.9 °F 30.1 °F 28.0 °F 70% 29.96 in 10.0 mi North 9.2 mph 17.3 mph N/A   Overcast
5:35 PM 36.9 °F 29.6 °F 28.2 °F 71% 29.97 in 10.0 mi North 10.4 mph - N/A   Overcast
5:55 PM 36.9 °F 31.4 °F 28.2 °F 71% 29.98 in 10.0 mi North 6.9 mph 18.4 mph N/A   Overcast
6:15 PM 36.9 °F 30.1 °F 27.9 °F 70% 29.98 in 10.0 mi North 9.2 mph - N/A   Overcast
6:35 PM 36.7 °F 30.5 °F 27.7 °F 70% 29.99 in 10.0 mi North 8.1 mph - N/A   Overcast
6:55 PM 36.9 °F 29.1 °F 27.3 °F 68% 29.99 in 10.0 mi North 11.5 mph - N/A   Overcast
7:15 PM 36.9 °F 31.4 °F 26.4 °F 66% 29.99 in 10.0 mi North 6.9 mph 16.1 mph N/A   Overcast
7:35 PM 36.9 °F 33.1 °F 26.2 °F 65% 29.99 in 10.0 mi NNW 4.6 mph - N/A   Overcast
7:55 PM 36.7 °F 32.0 °F 26.6 °F 67% 29.99 in 10.0 mi NW 5.8 mph - N/A   Overcast
8:15 PM 36.5 °F 33.9 °F 26.6 °F 67% 29.99 in 10.0 mi NNW 3.5 mph - N/A   Overcast
8:35 PM 36.7 °F 32.0 °F 26.6 °F 67% 29.99 in 10.0 mi North 5.8 mph - N/A   Overcast
8:55 PM 36.9 °F 30.1 °F 26.2 °F 65% 29.99 in 10.0 mi North 9.2 mph - N/A   Overcast
9:15 PM 36.3 °F 28.9 °F 26.1 °F 66% 29.99 in 10.0 mi North 10.4 mph - N/A   Overcast
9:35 PM 34.3 °F 27.7 °F 24.4 °F 67% 29.99 in 10.0 mi North 8.1 mph - N/A   Overcast
9:55 PM 34.3 °F 28.4 °F 24.4 °F 67% 29.99 in 10.0 mi North 6.9 mph - N/A   Overcast
10:15 PM 34.3 °F 26.5 °F 24.8 °F 68% 29.99 in 10.0 mi North 10.4 mph - N/A   Overcast
10:35 PM 34.2 °F 29.0 °F 25.3 °F 70% 29.98 in 10.0 mi North 5.8 mph - N/A   Overcast
11:15 PM 32.0 °F 25.6 °F 23.2 °F 70% 29.98 in 10.0 mi North 6.9 mph - N/A   Overcast
11:35 PM 32.0 °F 27.5 °F 23.0 °F 69% 29.98 in 10.0 mi North 4.6 mph - N/A   Overcast
11:55 PM 32.0 °F 27.5 °F 23.4 °F 70% 29.98 in 10.0 mi North 4.6 mph - N/A   Overcast